Tracking 29040 objects as of 16-Jun-2024
HD Live streaming from Space Station
objects crossing your sky now

ONEWEB-0117

Track ONEWEB-0117 now!
10-day predictions
ONEWEB-0117 is classified as:


NORAD ID: 47263
Int'l Code: 2020-100F
Perigee: 1,219.3 km
Apogee: 1,222.5 km
Inclination: 87.9 °
Period: 109.7 minutes
Semi major axis: 7591 km
RCS: Unknown
Launch date: December 18, 2020
Source: United Kingdom (UK)
Launch site: VOSTOCHNY COSMODROME (VOSTO)
Your satellite tracking list
Your tracking list is empty




NASA's NSSDC Master Catalog

Two Line Element Set (TLE):
1 47263U 20100F   24168.41289191 -.00000145  00000-0 -43744-3 0  9998
2 47263  87.8939 136.1491 0002125  84.7660 275.3711 13.12441799168679
Source of the keplerian elements: AFSPC